Location: Ch�teau-Arnoux
(44.0814°N, 6.0027°E)
Time: 00:25:54
(UTC+00:00)

ADEOS Rocket - Pass Details

Date: 15 November 2019
Orbit: 858 x 1307 km, 98.7° (Epoch: 07 December)

Event Time Altitude Azimuth Distance (km) Brightness Sun altitude
Rises 05:41:30 0° 151° (SSE) 4,280 7.1 -9.1°
Reaches altitude 10° 05:44:14 10° 148° (SSE) 3,318 6.6 -8.6°
Maximum altitude 05:51:51 62° 70° (ENE) 1,433 4.2 -7.3°
Drops below altitude 10° 05:59:12 10° 352° (N) 3,205 5.4 -6.0°
Sets 06:01:48 0° 350° (N) 4,125 6.0 -5.6°
